[[{"header":{"parameterUnit":"m.s-1","parameterCategory":2,"la1":30.2991,"la2":30.254,"lo1":-89.0895,"lo2":-89.0444,"dy":0.0017,"dx":0.0017,"nx":28,"ny":28,"refTime":"2025-01-01T09:00:00:Z","depth":"0","parameterNumber":2,"parameterNumberName":"U-component_of_CURRENTS"},"data":[0,0,0,0,0,0,0,0,0,0,0,0,0,0,0,0,0,0,0,0,0,0,0,0,0,0,0,0,0,0,0,0,0,0,0,0,0,0,0,0,0,0,0,0,0,0,0,0,0,0,0,0,0,0,0,0,0,0,-0.2371,-0.2371,0,-0.2327,-0.2326,-0.2326,-0.2285,-0.2284,-0.2284,-0.2284,-0.2177,-0.2174,-0.2172,0,0,0,0,0,0,0,0,0,0,0,0,0,-0.24,-0.24,-0.2371,-0.2371,-0.237,-0.2327,-0.2326,-0.2325,-0.2285,-0.2284,-0.2284,-0.2284,-0.2178,-0.2175,-0.2172,0,0,0,0,0,0,0,0,0,0,0,0,0,-0.2373,-0.24,-0.2371,-0.2346,-0.2344,-0.2327,-0.2326,-0.2325,-0.2285,-0.2284,-0.2284,-0.2284,-0.2179,-0.2175,-0.2171,-0.2157,0,0,-0.2159,-0.2158,0,0,0,0,0,0,0,0,-0.2375,-0.2372,-0.235,-0.2348,-0.2345,-0.2313,-0.2297,-0.2267,-0.2285,-0.2305,-0.2284,-0.2283,-0.2218,-0.2211,-0.2202,-0.2152,-0.2147,-0.2159,-0.2157,-0.2155,-0.2154,0,0,0,0,0,0,0,-0.2377,-0.2373,-0.2351,-0.235,-0.2347,-0.2331,-0.2326,-0.2291,-0.2262,-0.2303,-0.2301,-0.2299,-0.2216,-0.2206,-0.2199,-0.2146,-0.2159,-0.2156,-0.2153,-0.2152,-0.2088,-0.2088,0,0,0,0,0,0,-0.2388,-0.2375,-0.2353,-0.235,-0.2361,-0.2331,-0.2326,-0.2322,-0.2264,-0.2256,-0.23,-0.2298,-0.2212,-0.2203,-0.2195,-0.2177,-0.2155,-0.2152,-0.2149,-0.2087,-0.2088,-0.2088,0,0,0,0,0,0,-0.2388,-0.2386,-0.2355,-0.2363,-0.2359,-0.2331,-0.2327,-0.2321,-0.2304,-0.2262,-0.2252,-0.2287,-0.2212,-0.22,-0.2163,-0.2172,-0.215,-0.2146,-0.2086,-0.2087,-0.2088,-0.214,0,0,0,0,0,0,-0.2389,-0.2386,-0.2373,-0.2364,-0.2359,-0.2331,-0.2327,-0.2321,-0.2305,-0.2301,-0.2248,-0.2238,-0.221,-0.2169,-0.216,-0.2167,-0.2143,-0.2086,-0.2087,-0.2088,-0.2137,-0.2142,-0.2147,0,0,0,0,0,-0.239,-0.2358,-0.2372,-0.2369,-0.2345,-0.2331,-0.2326,-0.2304,-0.2305,-0.2288,-0.2265,-0.224,-0.217,-0.2166,-0.2155,-0.2161,-0.2085,-0.2086,-0.2088,-0.2135,-0.2141,-0.2146,0,0,0,0,0,0,-0.2333,-0.2351,-0.2366,-0.2334,-0.2336,-0.2324,-0.2298,-0.2303,-0.2274,-0.2268,-0.2237,-0.2225,-0.22,-0.2173,-0.217,-0.2148,-0.2127,-0.2126,-0.2167,-0.2172,-0.2177,-0.219,-0.214,0,0,0,0,0,-0.2327,-0.2324,-0.2337,-0.2311,-0.2313,-0.2314,-0.2302,-0.2299,-0.2281,-0.2268,-0.2242,-0.2216,-0.2199,-0.2179,-0.2152,-0.213,-0.2106,-0.2131,-0.2135,-0.2139,-0.2143,-0.2132,-0.2137,-0.2093,-0.2093,-0.2093,0,0,-0.2297,-0.2307,-0.2302,-0.2302,-0.23,-0.2306,-0.2303,-0.2286,-0.2295,-0.226,-0.2245,-0.2225,-0.2197,-0.218,-0.2167,-0.2156,-0.2135,-0.2141,-0.2145,-0.2146,-0.2134,-0.2138,-0.2142,-0.2094,-0.2093,-0.2093,0,0,-0.225,-0.2249,-0.2245,-0.2257,-0.2266,-0.2276,-0.2277,-0.2278,-0.2276,-0.2266,-0.2257,-0.2246,-0.2203,-0.2199,-0.219,-0.2203,-0.2161,-0.2193,-0.2222,-0.2212,-0.2215,-0.2218,-0.2176,-0.2175,-0.2194,-0.2194,-0.2194,0,-0.2215,-0.222,-0.2235,-0.2243,-0.2254,-0.227,-0.2278,-0.2281,-0.2271,-0.2277,-0.2262,-0.2241,-0.2218,-0.2222,-0.2234,-0.2214,-0.2188,-0.2203,-0.2218,-0.2221,-0.2223,-0.2179,-0.2177,-0.2197,-0.2197,-0.2196,-0.2196,0,-0.2186,-0.2194,-0.2185,-0.2224,-0.2234,-0.2232,-0.2265,-0.2271,-0.228,-0.229,-0.2289,-0.2268,-0.2258,-0.2257,-0.2248,-0.2261,-0.223,-0.2226,-0.2205,-0.223,-0.2182,-0.2179,-0.2201,-0.22,-0.2199,-0.2198,0,0,-0.2099,-0.216,-0.2157,-0.2185,-0.2229,-0.2231,-0.2263,-0.2292,-0.2304,-0.2306,-0.2318,-0.2315,-0.2311,-0.2303,-0.2295,-0.2294,-0.2288,-0.2271,-0.2269,-0.223,-0.2238,-0.2122,-0.2107,-0.2286,-0.2286,-0.2287,-0.2192,0,-0.2076,-0.2099,-0.214,-0.2164,-0.2182,-0.2232,-0.2257,-0.2289,-0.2306,-0.2315,-0.2327,-0.2317,-0.2327,-0.2315,-0.2326,-0.2299,-0.2285,-0.2312,-0.2218,-0.2215,-0.2111,-0.2102,-0.1985,-0.1884,-0.2189,-0.2189,-0.2188,0,-0.2035,-0.2065,-0.209,-0.2158,-0.2169,-0.2186,-0.2237,-0.2262,-0.2301,-0.2312,-0.2331,-0.2329,-0.2343,-0.2334,-0.2314,-0.2328,-0.229,-0.2264,-0.226,-0.2133,-0.2094,-0.1911,-0.1866,-0.1854,-0.2183,-0.2183,-0.2184,0,-0.1968,-0.2025,-0.2049,-0.207,-0.2145,-0.2165,-0.22,-0.2249,-0.2261,-0.23,-0.2292,-0.2326,-0.2305,-0.2303,-0.2264,-0.2286,-0.2213,-0.2233,-0.2087,-0.2077,-0.1949,-0.1927,-0.1882,-0.2202,-0.2203,-0.2203,-0.2203,0,-0.1925,-0.1936,-0.2016,-0.2025,-0.2042,-0.2116,-0.2128,-0.2172,-0.2213,-0.221,-0.2272,-0.2248,-0.2295,-0.2262,-0.2251,-0.2144,-0.2198,-0.208,-0.2047,-0.196,-0.1941,-0.19,-0.1928,-0.2199,-0.22,-0.2201,-0.2201,0,-0.1835,-0.1893,-0.1913,-0.1989,-0.2007,-0.2012,-0.2068,-0.2071,-0.2127,-0.2124,-0.2128,-0.217,-0.2121,-0.2134,-0.21,-0.208,-0.1964,-0.1961,-0.1839,-0.1792,-0.1649,-0.1683,-0.1589,-0.1549,-0.1793,-0.1789,-0.1786,0,-0.1789,-0.1793,-0.1857,-0.1858,-0.1885,-0.191,-0.1921,-0.2004,-0.2014,-0.2052,-0.2035,-0.2004,-0.1943,-0.1853,-0.1811,-0.1738,-0.1787,-0.1608,-0.1637,-0.1608,-0.1624,-0.1665,-0.1644,-0.1482,-0.1477,-0.1473,-0.147,0,-0.1691,-0.1712,-0.173,-0.1741,-0.175,-0.1773,-0.1804,-0.1808,-0.1895,-0.1877,-0.1843,-0.1792,-0.1691,-0.1559,-0.148,-0.1445,-0.1556,-0.1516,-0.153,-0.1403,-0.1404,-0.1358,-0.157,-0.1432,-0.1436,-0.1439,-0.1441,-0.1442,-0.1595,-0.1579,-0.1603,-0.1608,-0.1628,-0.1644,-0.1602,-0.1638,-0.1626,-0.1563,-0.1629,-0.1463,-0.1408,-0.1255,-0.1218,-0.1125,-0.1226,-0.1122,-0.117,-0.122,-0.1167,-0.1273,-0.1076,-0.1078,-0.1079,-0.1081,-0.1082,0,-0.1469,-0.1475,-0.1471,-0.1492,-0.1489,-0.1523,-0.1517,-0.1436,-0.136,-0.1283,-0.1206,-0.1073,-0.0967,-0.093,-0.0864,-0.082,-0.0846,-0.0834,-0.0897,-0.0897,-0.1007,-0.0979,-0.0699,-0.0699,-0.0699,-0.0699,-0.0699,-0.0699,-0.1399,-0.1357,-0.1371,-0.1352,-0.1362,-0.1253,-0.1207,-0.1087,-0.0973,-0.075,-0.0593,-0.055,-0.0632,-0.0744,-0.0718,-0.0692,-0.0731,-0.0675,-0.0756,-0.0869,-0.0902,-0.0934,-0.0914,-0.0625,-0.0625,-0.0596,-0.0596,-0.0596]},{"header":{"parameterUnit":"m.s-1","parameterCategory":2,"la1":30.2991,"la2":30.254,"lo1":-89.0895,"lo2":-89.0444,"dy":0.0017,"dx":0.0017,"nx":28,"ny":28,"refTime":"2025-01-01T09:00:00:Z","depth":"0","parameterNumber":3,"parameterNumberName":"V-component_of_CURRENTS"},"data":[0,0,0,0,0,0,0,0,0,0,0,0,0,0,0,0,0,0,0,0,0,0,0,0,0,0,0,0,0,0,0,0,0,0,0,0,0,0,0,0,0,0,0,0,0,0,0,0,0,0,0,0,0,0,0,0,0,0,-0.0332,-0.0331,0,-0.0237,-0.0236,-0.0235,-0.0195,-0.0195,-0.0195,-0.0195,-0.0105,-0.0103,-0.0101,0,0,0,0,0,0,0,0,0,0,0,0,0,-0.0443,-0.0441,-0.0332,-0.0331,-0.0329,-0.0238,-0.0236,-0.0235,-0.0195,-0.0195,-0.0195,-0.0195,-0.0106,-0.0103,-0.01,0,0,0,0,0,0,0,0,0,0,0,0,0,-0.0377,-0.0441,-0.0332,-0.0298,-0.0294,-0.0238,-0.0236,-0.0235,-0.0195,-0.0195,-0.0195,-0.0196,-0.0107,-0.0104,-0.01,-0.0073,0,0,-0.0088,-0.0087,0,0,0,0,0,0,0,0,-0.0381,-0.0373,-0.0304,-0.03,-0.0296,-0.0228,-0.0242,-0.0181,-0.0195,-0.0233,-0.0195,-0.0196,-0.0146,-0.0139,-0.0122,-0.0069,-0.0065,-0.0088,-0.0086,-0.0084,-0.0083,0,0,0,0,0,0,0,-0.0385,-0.0376,-0.0295,-0.0303,-0.0298,-0.0276,-0.0267,-0.023,-0.019,-0.023,-0.0227,-0.0215,-0.0144,-0.0126,-0.0119,-0.0064,-0.0088,-0.0085,-0.0083,-0.0081,0.0014,0.0014,0,0,0,0,0,0,-0.0397,-0.0381,-0.0298,-0.0292,-0.0339,-0.0274,-0.0264,-0.025,-0.019,-0.0181,-0.0215,-0.0214,-0.0132,-0.0124,-0.0116,-0.0099,-0.0084,-0.0081,-0.0079,0.0013,0.0014,0.0014,0,0,0,0,0,0,-0.04,-0.0391,-0.0302,-0.0334,-0.0321,-0.0272,-0.0256,-0.0248,-0.023,-0.0179,-0.017,-0.0206,-0.0132,-0.0121,-0.0086,-0.0095,-0.0079,-0.0076,0.0013,0.0014,0.0014,-0.0053,0,0,0,0,0,0,-0.0404,-0.0392,-0.0386,-0.0335,-0.032,-0.0275,-0.0256,-0.0246,-0.0222,-0.0219,-0.0168,-0.016,-0.0131,-0.0092,-0.0082,-0.0089,-0.0073,0.0013,0.0013,0.0014,-0.0051,-0.0055,-0.0058,0,0,0,0,0,-0.0408,-0.04,-0.0387,-0.0377,-0.0313,-0.0275,-0.0266,-0.0231,-0.0222,-0.0216,-0.018,-0.0162,-0.0082,-0.0088,-0.0077,-0.0083,0.0013,0.0013,0.0014,-0.005,-0.0054,-0.0058,0,0,0,0,0,0,-0.044,-0.0393,-0.0378,-0.0355,-0.0321,-0.0268,-0.0258,-0.0234,-0.02,-0.0199,-0.0155,-0.0144,-0.0116,-0.0086,-0.0094,-0.0053,-0.0033,-0.003,-0.0085,-0.0088,-0.0092,-0.0113,-0.0069,0,0,0,0,0,-0.0446,-0.0432,-0.0383,-0.0366,-0.0352,-0.0306,-0.0286,-0.0264,-0.0226,-0.0211,-0.0175,-0.0136,-0.0103,-0.0086,-0.005,-0.0026,0.0006,-0.0022,-0.0026,-0.0029,-0.0037,-0.0004,-0.0006,0.0016,0.0016,0.0016,0,0,-0.0454,-0.0427,-0.0418,-0.0373,-0.0346,-0.0334,-0.0295,-0.027,-0.0262,-0.0206,-0.0186,-0.0145,-0.0098,-0.0074,-0.0059,-0.0051,-0.0014,-0.0028,-0.0032,-0.0038,-0.0004,-0.0006,-0.0008,0.0016,0.0016,0.0016,0,0,-0.0474,-0.0441,-0.0442,-0.0419,-0.0382,-0.0353,-0.0349,-0.03,-0.028,-0.0249,-0.0212,-0.0177,-0.0123,-0.0095,-0.0073,-0.0072,-0.0032,-0.0059,-0.0097,-0.0065,-0.0067,-0.0069,-0.0017,-0.0013,-0.0064,-0.0064,-0.0064,0,-0.0488,-0.048,-0.0436,-0.0434,-0.0425,-0.0369,-0.0374,-0.0342,-0.0288,-0.0275,-0.0254,-0.0176,-0.0135,-0.011,-0.011,-0.0082,-0.0051,-0.0089,-0.0072,-0.0073,-0.0074,-0.002,-0.0015,-0.0067,-0.0067,-0.0066,-0.0066,0,-0.0511,-0.0507,-0.0506,-0.049,-0.0472,-0.0465,-0.0421,-0.04,-0.0368,-0.0334,-0.0295,-0.0232,-0.0191,-0.0169,-0.0139,-0.0122,-0.0093,-0.0081,-0.0069,-0.008,-0.0022,-0.0015,-0.0072,-0.007,-0.0069,-0.0069,0,0,-0.0537,-0.0527,-0.0527,-0.0536,-0.0504,-0.049,-0.0482,-0.0454,-0.044,-0.0388,-0.0371,-0.0311,-0.0273,-0.0246,-0.0199,-0.0167,-0.0134,-0.0133,-0.0129,-0.0093,-0.0049,0.0006,0.0019,-0.0124,-0.0124,-0.0124,-0.0002,0,-0.0572,-0.0596,-0.0576,-0.0596,-0.0606,-0.0563,-0.0555,-0.0521,-0.0477,-0.0441,-0.0382,-0.0336,-0.0304,-0.0273,-0.0246,-0.015,-0.0123,-0.0167,-0.0032,-0.0028,0.0012,0.0026,0.0053,0.0165,0.0004,0.0005,0.0006,0,-0.0602,-0.0617,-0.0652,-0.0654,-0.0652,-0.0651,-0.0627,-0.0611,-0.0551,-0.0514,-0.0472,-0.0408,-0.0347,-0.0317,-0.0196,-0.0225,-0.0155,-0.0085,-0.0079,-0.0003,0.0038,0.015,0.0183,0.0267,0.0016,0.0015,0.0015,0,-0.0649,-0.0666,-0.07,-0.0702,-0.0693,-0.0698,-0.0686,-0.0637,-0.0611,-0.0554,-0.0513,-0.0448,-0.0379,-0.0306,-0.016,-0.0179,-0.0014,-0.002,0.0093,0.0099,0.0161,0.0172,0.0279,0.0043,0.0043,0.0042,0.0042,0,-0.0695,-0.0717,-0.0725,-0.0742,-0.0766,-0.0743,-0.0742,-0.0715,-0.0662,-0.0615,-0.0554,-0.0484,-0.0372,-0.0257,-0.0166,0.0002,-0.0018,0.0093,0.0131,0.0143,0.0149,0.0257,0.0277,0.0047,0.0046,0.0045,0.0044,0,-0.0736,-0.0745,-0.078,-0.0789,-0.0791,-0.0806,-0.0778,-0.0763,-0.0707,-0.0643,-0.0619,-0.0492,-0.0333,-0.0207,-0.0042,0.0027,0.0226,0.0217,0.0237,0.0274,0.0436,0.0451,0.059,0.0652,0.0352,0.0354,0.0356,0,-0.076,-0.0786,-0.0815,-0.0831,-0.0837,-0.0846,-0.0842,-0.0798,-0.0764,-0.0628,-0.0591,-0.0425,-0.028,-0.0019,0.0125,0.0298,0.0339,0.0415,0.0372,0.0458,0.0503,0.05,0.0541,0.0441,0.0443,0.0445,0.0446,0,-0.0798,-0.0808,-0.0835,-0.0873,-0.0885,-0.0887,-0.087,-0.0837,-0.0752,-0.064,-0.0468,-0.0337,-0.0111,0.0115,0.0317,0.0406,0.0478,0.0459,0.0539,0.0575,0.0587,0.0661,0.036,0.0463,0.0461,0.046,0.0459,0.0458,-0.0814,-0.0842,-0.0873,-0.0904,-0.092,-0.0901,-0.0829,-0.0768,-0.0647,-0.0399,-0.0347,-0.0052,0.0115,0.0412,0.0504,0.0682,0.0634,0.0729,0.0742,0.0733,0.0782,0.0528,0.0672,0.0672,0.0671,0.0671,0.0671,0,-0.0822,-0.0855,-0.0894,-0.0909,-0.0899,-0.0898,-0.0816,-0.0678,-0.0458,-0.0251,-0.002,0.0324,0.0531,0.0675,0.0858,0.0958,0.0955,0.1001,0.0993,0.1024,0.0803,0.0795,0.0982,0.0982,0.0982,0.0982,0.0982,0.0981,-0.0826,-0.0866,-0.089,-0.0877,-0.0855,-0.0719,-0.062,-0.0419,-0.0225,0.0185,0.0487,0.0663,0.0806,0.1003,0.1173,0.1187,0.1268,0.125,0.1303,0.1133,0.1108,0.1083,0.1082,0.1326,0.1327,0.1517,0.1519,0.152]}],[{"header":{"parameterUnit":"m.s-1","parameterCategory":2,"la1":30.2991,"la2":30.254,"lo1":-89.0895,"lo2":-89.0444,"dy":0.0017,"dx":0.0017,"nx":28,"ny":28,"refTime":"2025-01-01T09:00:00:Z","depth":"2","parameterNumber":2,"parameterNumberName":"U-component_of_CURRENTS"},"data":[0,0,0,0,0,0,0,0,0,0,0,0,0,0,0,0,0,0,0,0,0,0,0,0,0,0,0,0,0,0,0,0,0,0,0,0,0,0,0,0,0,0,0,0,0,0,0,0,0,0,0,0,0,0,0,0,0,0,-0.1981,-0.1982,0,-0.197,-0.197,-0.197,-0.1947,-0.1947,-0.1947,-0.1946,-0.1895,-0.1894,-0.1893,0,0,0,0,0,0,0,0,0,0,0,0,0,-0.1979,-0.1979,-0.1981,-0.1982,-0.1982,-0.197,-0.197,-0.197,-0.1947,-0.1947,-0.1947,-0.1946,-0.1896,-0.1894,-0.1893,0,0,0,0,0,0,0,0,0,0,0,0,0,-0.1974,-0.1979,-0.1981,-0.1971,-0.197,-0.197,-0.197,-0.1969,-0.1947,-0.1947,-0.1946,-0.1946,-0.1896,-0.1894,-0.1893,-0.189,0,0,-0.1888,-0.1887,0,0,0,0,0,0,0,0,-0.1974,-0.1973,-0.1972,-0.1971,-0.197,-0.1961,-0.1951,-0.1942,-0.1947,-0.1954,-0.1946,-0.1946,-0.1915,-0.1912,-0.1909,-0.1888,-0.1886,-0.1888,-0.1887,-0.1886,-0.1885,0,0,0,0,0,0,0,-0.1974,-0.1974,-0.1975,-0.1972,-0.1971,-0.1965,-0.1963,-0.1949,-0.1935,-0.1953,-0.1952,-0.1954,-0.1914,-0.191,-0.1907,-0.1885,-0.1888,-0.1886,-0.1885,-0.1884,-0.1869,-0.1869,0,0,0,0,0,0,-0.1981,-0.1974,-0.1975,-0.1975,-0.1973,-0.1965,-0.1964,-0.1963,-0.1935,-0.1932,-0.1954,-0.1953,-0.1913,-0.1909,-0.1905,-0.1905,-0.1886,-0.1884,-0.1883,-0.1868,-0.1869,-0.187,0,0,0,0,0,0,-0.198,-0.1981,-0.1976,-0.1976,-0.1975,-0.1966,-0.1965,-0.1963,-0.1961,-0.1937,-0.1932,-0.1955,-0.1913,-0.1907,-0.1896,-0.1903,-0.1884,-0.1882,-0.1867,-0.1868,-0.1869,-0.1902,0,0,0,0,0,0,-0.198,-0.1981,-0.1978,-0.1976,-0.1975,-0.1975,-0.1966,-0.1963,-0.1964,-0.1962,-0.1936,-0.1931,-0.1912,-0.1899,-0.1894,-0.19,-0.1881,-0.1867,-0.1868,-0.1869,-0.19,-0.1904,-0.1907,0,0,0,0,0,-0.198,-0.1971,-0.1978,-0.1978,-0.1974,-0.1975,-0.1973,-0.1964,-0.1964,-0.1961,-0.1949,-0.1932,-0.1903,-0.1898,-0.1892,-0.1898,-0.1866,-0.1868,-0.1869,-0.1899,-0.1903,-0.1907,0,0,0,0,0,0,-0.1958,-0.1969,-0.1975,-0.1968,-0.1975,-0.1972,-0.1964,-0.1969,-0.1959,-0.1955,-0.1936,-0.193,-0.1924,-0.1909,-0.1904,-0.1898,-0.1883,-0.1883,-0.1908,-0.1912,-0.1915,-0.1908,-0.1879,0,0,0,0,0,-0.1958,-0.1957,-0.197,-0.1962,-0.1967,-0.1971,-0.197,-0.1971,-0.1965,-0.196,-0.1947,-0.1934,-0.1926,-0.1917,-0.1904,-0.1898,-0.1876,-0.19,-0.1904,-0.1907,-0.1899,-0.1885,-0.1886,-0.1874,-0.1874,-0.1874,0,0,-0.1945,-0.1952,-0.195,-0.1959,-0.1961,-0.1968,-0.1968,-0.1969,-0.1974,-0.1955,-0.1951,-0.1945,-0.1928,-0.1923,-0.1919,-0.191,-0.1898,-0.1909,-0.1911,-0.1901,-0.1886,-0.1887,-0.1888,-0.1875,-0.1875,-0.1874,0,0,-0.1924,-0.1931,-0.1928,-0.194,-0.1953,-0.196,-0.1965,-0.1972,-0.1973,-0.1976,-0.1967,-0.1964,-0.1949,-0.194,-0.1934,-0.1949,-0.1919,-0.195,-0.1958,-0.1945,-0.1945,-0.1946,-0.1914,-0.1912,-0.195,-0.195,-0.195,0,-0.1909,-0.1911,-0.1925,-0.1933,-0.1941,-0.196,-0.1965,-0.1972,-0.1975,-0.1977,-0.1976,-0.1967,-0.1956,-0.1952,-0.196,-0.1956,-0.1938,-0.1943,-0.1949,-0.1948,-0.1948,-0.1916,-0.1912,-0.1951,-0.1951,-0.1951,-0.1951,0,-0.1892,-0.19,-0.1899,-0.192,-0.1931,-0.1936,-0.196,-0.1969,-0.1979,-0.1987,-0.1989,-0.1981,-0.1974,-0.1978,-0.1972,-0.1971,-0.1955,-0.1957,-0.1936,-0.1951,-0.1916,-0.1912,-0.1954,-0.1953,-0.1953,-0.1952,0,0,-0.1835,-0.1879,-0.1878,-0.1894,-0.1927,-0.1933,-0.1952,-0.1969,-0.1978,-0.1987,-0.1992,-0.1992,-0.1993,-0.1987,-0.1985,-0.1976,-0.1963,-0.1968,-0.1966,-0.1933,-0.192,-0.1838,-0.1825,-0.1969,-0.1969,-0.1968,-0.1895,0,-0.1816,-0.1833,-0.186,-0.1876,-0.1888,-0.1922,-0.1939,-0.1961,-0.1977,-0.1987,-0.1992,-0.1994,-0.1996,-0.1996,-0.1991,-0.1975,-0.1954,-0.1982,-0.1913,-0.191,-0.1833,-0.1818,-0.1681,-0.1597,-0.189,-0.189,-0.1889,0,-0.1783,-0.1804,-0.1819,-0.1866,-0.1873,-0.1887,-0.1919,-0.1938,-0.1965,-0.1979,-0.1987,-0.1994,-0.199,-0.1991,-0.1957,-0.1976,-0.1946,-0.1929,-0.1925,-0.1831,-0.182,-0.1631,-0.1578,-0.1882,-0.1882,-0.1883,-0.1883,0,-0.173,-0.1771,-0.1783,-0.1798,-0.1853,-0.1864,-0.1891,-0.1926,-0.194,-0.197,-0.1976,-0.1983,-0.1975,-0.1956,-0.1926,-0.1942,-0.1876,-0.1894,-0.1784,-0.1778,-0.1635,-0.1616,-0.1853,-0.1853,-0.1853,-0.1853,-0.1853,0,-0.1692,-0.1699,-0.1761,-0.1767,-0.1779,-0.1833,-0.1846,-0.1877,-0.1914,-0.191,-0.1963,-0.1943,-0.1966,-0.1937,-0.1915,-0.1824,-0.1862,-0.1768,-0.1749,-0.1642,-0.1626,-0.1857,-0.1858,-0.185,-0.1851,-0.1852,-0.1852,0,-0.1622,-0.1666,-0.168,-0.1738,-0.1753,-0.1759,-0.1812,-0.1816,-0.1871,-0.1866,-0.1874,-0.1906,-0.1857,-0.1858,-0.1814,-0.1785,-0.1727,-0.1682,-0.1546,-0.1512,-0.164,-0.1644,-0.1552,-0.1548,-0.1545,-0.1543,-0.1541,0,-0.1585,-0.1586,-0.1638,-0.164,-0.1661,-0.1688,-0.1697,-0.1773,-0.1777,-0.1815,-0.1793,-0.1779,-0.1712,-0.1634,-0.158,-0.1507,-0.1605,-0.1365,-0.137,-0.1615,-0.1607,-0.1617,-0.1625,-0.1194,-0.119,-0.1186,-0.1183,0,-0.1504,-0.1524,-0.1535,-0.1543,-0.1553,-0.1569,-0.1592,-0.1595,-0.1661,-0.1658,-0.1617,-0.1573,-0.1491,-0.1346,-0.1286,-0.1242,-0.1373,-0.128,-0.1558,-0.1297,-0.1273,-0.1268,-0.1288,-0.1148,-0.1151,-0.1154,-0.1156,-0.1157,-0.1426,-0.1413,-0.1427,-0.1423,-0.1438,-0.1428,-0.1389,-0.1416,-0.14,-0.1356,-0.14,-0.1283,-0.1263,-0.1064,-0.1005,-0.0985,-0.1086,-0.1069,-0.1084,-0.1101,-0.1078,-0.1051,-0.0878,-0.088,-0.0881,-0.0883,-0.0884,0,-0.1319,-0.1314,-0.1304,-0.1288,-0.1247,-0.1303,-0.129,-0.1225,-0.1146,-0.1132,-0.1069,-0.0921,-0.0807,-0.0806,-0.0691,-0.0682,-0.0705,-0.0683,-0.0712,-0.0745,-0.0775,-0.0739,-0.0447,-0.0446,-0.0445,-0.0444,0,0,-0.1259,-0.1211,-0.1207,-0.1102,-0.1084,-0.0985,-0.0949,-0.0884,-0.0843,-0.0741,-0.0678,-0.0709,-0.073,-0.057,-0.0548,-0.0469,-0.0606,-0.0447,-0.0791,-0.0853,-0.0882,-0.0983,-0.0961,0,0,0,0,0]},{"header":{"parameterUnit":"m.s-1","parameterCategory":2,"la1":30.2991,"la2":30.254,"lo1":-89.0895,"lo2":-89.0444,"dy":0.0017,"dx":0.0017,"nx":28,"ny":28,"refTime":"2025-01-01T09:00:00:Z","depth":"2","parameterNumber":3,"parameterNumberName":"V-component_of_CURRENTS"},"data":[0,0,0,0,0,0,0,0,0,0,0,0,0,0,0,0,0,0,0,0,0,0,0,0,0,0,0,0,0,0,0,0,0,0,0,0,0,0,0,0,0,0,0,0,0,0,0,0,0,0,0,0,0,0,0,0,0,0,-0.0228,-0.0227,0,-0.0153,-0.0153,-0.0152,-0.0115,-0.0115,-0.0115,-0.0115,-0.0037,-0.0035,-0.0032,0,0,0,0,0,0,0,0,0,0,0,0,0,-0.0302,-0.0302,-0.0228,-0.0227,-0.0226,-0.0154,-0.0153,-0.0152,-0.0115,-0.0115,-0.0115,-0.0115,-0.0037,-0.0035,-0.0032,0,0,0,0,0,0,0,0,0,0,0,0,0,-0.0254,-0.0301,-0.0228,-0.0199,-0.0196,-0.0154,-0.0153,-0.0151,-0.0115,-0.0115,-0.0115,-0.0115,-0.0038,-0.0035,-0.0032,-0.0013,0,0,-0.0022,-0.0021,0,0,0,0,0,0,0,0,-0.0256,-0.0251,-0.0204,-0.0201,-0.0197,-0.0143,-0.015,-0.0105,-0.0115,-0.0146,-0.0115,-0.0115,-0.0072,-0.0066,-0.0052,-0.001,-0.0006,-0.0022,-0.002,-0.0019,-0.0018,0,0,0,0,0,0,0,-0.026,-0.0254,-0.0199,-0.0203,-0.0199,-0.0177,-0.0171,-0.0141,-0.011,-0.0143,-0.014,-0.0132,-0.007,-0.0055,-0.005,-0.0005,-0.0022,-0.0019,-0.0018,-0.0016,0.0061,0.0062,0,0,0,0,0,0,-0.027,-0.0257,-0.0201,-0.0197,-0.0227,-0.0176,-0.0169,-0.0161,-0.011,-0.0102,-0.0132,-0.013,-0.0061,-0.0054,-0.0047,-0.0025,-0.0019,-0.0016,-0.0014,0.0061,0.0061,0.0062,0,0,0,0,0,0,-0.0272,-0.0266,-0.0204,-0.0225,-0.0215,-0.0175,-0.0166,-0.0159,-0.0146,-0.0102,-0.0094,-0.0125,-0.006,-0.0052,-0.0021,-0.0021,-0.0015,-0.0012,0.0061,0.0061,0.0062,0.0022,0,0,0,0,0,0,-0.0275,-0.0267,-0.0267,-0.0226,-0.0215,-0.0184,-0.0166,-0.0158,-0.014,-0.0137,-0.0093,-0.0086,-0.006,-0.0026,-0.0018,-0.0017,-0.0009,0.0061,0.0061,0.0061,0.0023,0.0021,0.002,0,0,0,0,0,-0.0278,-0.0277,-0.0267,-0.0261,-0.0215,-0.0184,-0.0176,-0.0147,-0.014,-0.0135,-0.0104,-0.0087,-0.0018,-0.0024,-0.0014,-0.0012,0.0061,0.0061,0.0061,0.0024,0.0022,0.002,0,0,0,0,0,0,-0.0308,-0.0272,-0.0261,-0.0249,-0.0221,-0.0178,-0.017,-0.0151,-0.0122,-0.0122,-0.0083,-0.0073,-0.0048,-0.0023,-0.003,0.0012,0.0023,0.0026,-0.0008,-0.001,-0.0012,-0.0025,-0.0007,0,0,0,0,0,-0.0315,-0.0306,-0.0268,-0.026,-0.0248,-0.0211,-0.0196,-0.0176,-0.0145,-0.0132,-0.01,-0.0067,-0.0038,-0.002,0.0008,0.0034,0.006,0.0042,0.0039,0.0038,0.0034,0.0075,0.0077,0.0063,0.0063,0.0063,0,0,-0.0324,-0.0304,-0.0298,-0.0266,-0.0243,-0.0231,-0.0202,-0.0182,-0.017,-0.0128,-0.0105,-0.0074,-0.0034,-0.0007,0.0006,0.0014,0.0056,0.0038,0.0036,0.0034,0.0076,0.0077,0.0079,0.0063,0.0063,0.0063,0,0,-0.0341,-0.0322,-0.0321,-0.0302,-0.0272,-0.0247,-0.0245,-0.0204,-0.0185,-0.0157,-0.0126,-0.0094,-0.0049,-0.0017,0.0004,0.001,0.0041,0.0017,0.0001,0.0041,0.0042,0.0044,0.0078,0.0083,0.0019,0.0019,0.0019,0,-0.0355,-0.0349,-0.0317,-0.0312,-0.0301,-0.0259,-0.0258,-0.023,-0.0184,-0.0167,-0.0158,-0.0086,-0.0053,-0.0014,-0.0014,0.0005,0.0029,0.0005,0.0038,0.004,0.0042,0.0077,0.0082,0.0017,0.0017,0.0018,0.0018,0,-0.037,-0.0367,-0.0366,-0.0348,-0.033,-0.0322,-0.0282,-0.0262,-0.0236,-0.0203,-0.0162,-0.0113,-0.007,-0.0054,-0.0033,0.0,0.0012,0.0027,0.004,0.0041,0.0078,0.0084,0.0014,0.0015,0.0016,0.0016,0,0,-0.0397,-0.0381,-0.0382,-0.0384,-0.035,-0.0338,-0.0317,-0.0282,-0.0267,-0.022,-0.0193,-0.0139,-0.0109,-0.0084,-0.0047,-0.0012,0.0025,0.0008,0.0011,0.0036,0.0108,0.0129,0.0139,0.0043,0.0044,0.0044,0.0127,0,-0.0421,-0.0433,-0.041,-0.0417,-0.042,-0.0378,-0.0362,-0.0324,-0.0284,-0.0247,-0.0187,-0.0152,-0.012,-0.0103,-0.006,0.0005,0.0041,0.0001,0.011,0.0113,0.0127,0.0147,0.012,0.0193,0.0134,0.0135,0.0136,0,-0.0443,-0.045,-0.0467,-0.0458,-0.0454,-0.0449,-0.0416,-0.0394,-0.0328,-0.0296,-0.0243,-0.0194,-0.013,-0.011,0.0004,-0.0024,0.0034,0.0084,0.0089,0.0125,0.0146,0.0185,0.0208,0.0148,0.0147,0.0146,0.0145,0,-0.0486,-0.0487,-0.0506,-0.0504,-0.0484,-0.0481,-0.0466,-0.0413,-0.0391,-0.0328,-0.0304,-0.0218,-0.0171,-0.0089,0.002,0.001,0.0145,0.0148,0.0223,0.0225,0.0234,0.0235,0.0222,0.0222,0.0222,0.0221,0.0221,0,-0.0521,-0.0534,-0.0532,-0.0544,-0.0561,-0.0528,-0.0527,-0.0495,-0.0444,-0.0409,-0.0337,-0.0287,-0.0165,-0.0069,0.0017,0.015,0.015,0.0225,0.0252,0.022,0.0219,0.0202,0.0199,0.0225,0.0224,0.0223,0.0223,0,-0.0562,-0.0561,-0.0585,-0.0583,-0.0585,-0.0598,-0.0578,-0.0568,-0.0516,-0.0468,-0.0451,-0.0331,-0.02,-0.0075,0.0077,0.0152,0.0267,0.031,0.0262,0.0282,0.0318,0.0311,0.0398,0.04,0.0401,0.0402,0.0403,0,-0.0584,-0.0603,-0.0624,-0.0642,-0.0644,-0.0655,-0.0657,-0.0614,-0.0591,-0.0484,-0.0459,-0.0328,-0.021,0.0015,0.016,0.0318,0.0315,0.038,0.0357,0.0321,0.0338,0.0329,0.0321,0.0354,0.0354,0.0355,0.0355,0,-0.0622,-0.0631,-0.0652,-0.0692,-0.071,-0.0721,-0.0714,-0.0703,-0.0628,-0.0571,-0.0453,-0.0353,-0.0132,0.005,0.0245,0.0329,0.0351,0.0392,0.0383,0.0309,0.0285,0.0299,0.0292,0.0358,0.0358,0.0357,0.0357,0.0357,-0.0646,-0.0675,-0.0702,-0.0735,-0.0759,-0.0765,-0.0763,-0.0727,-0.0677,-0.056,-0.0457,-0.0284,-0.0118,0.0168,0.0293,0.0402,0.0405,0.0428,0.0425,0.0422,0.0398,0.0377,0.0462,0.0463,0.0463,0.0463,0.0463,0,-0.0667,-0.0697,-0.0736,-0.0772,-0.0796,-0.0798,-0.0781,-0.0747,-0.0674,-0.0553,-0.0426,-0.0204,-0.0009,0.0157,0.0336,0.0443,0.0418,0.045,0.0398,0.0395,0.0392,0.0364,0.0421,0.0421,0.0422,0.0422,0,0,-0.0678,-0.0719,-0.074,-0.0786,-0.0809,-0.0815,-0.0798,-0.0728,-0.0637,-0.0492,-0.036,-0.0206,0.001,0.0126,0.0254,0.0344,0.0333,0.0343,0.0366,0.0284,0.028,0.0372,0.0326,0,0,0,0,0]}],[{"header":{"parameterUnit":"m.s-1","parameterCategory":2,"la1":30.2991,"la2":30.254,"lo1":-89.0895,"lo2":-89.0444,"dy":0.0017,"dx":0.0017,"nx":28,"ny":28,"refTime":"2025-01-01T09:00:00:Z","depth":"4","parameterNumber":2,"parameterNumberName":"U-component_of_CURRENTS"},"data":[0,0,0,0,0,0,0,0,0,0,0,0,0,0,0,0,0,0,0,0,0,0,0,0,0,0,0,0,0,0,0,0,0,0,0,0,0,0,0,0,0,0,0,0,0,0,0,0,0,0,0,0,0,0,0,0,0,0,-0.1364,-0.1364,0,-0.1395,-0.1395,-0.1395,-0.1419,-0.1419,-0.1419,-0.142,-0.1448,-0.1449,-0.1449,0,0,0,0,0,0,0,0,0,0,0,0,0,-0.1323,-0.1324,-0.1364,-0.1364,-0.1365,-0.1394,-0.1395,-0.1395,-0.1419,-0.1419,-0.142,-0.142,-0.1448,-0.1449,-0.1449,0,0,0,0,0,0,0,0,0,0,0,0,0,-0.1345,-0.1324,-0.1364,-0.1381,-0.1383,-0.1394,-0.1395,-0.1395,-0.1419,-0.1419,-0.142,-0.142,-0.1448,-0.1449,-0.1449,-0.1443,0,0,-0.1451,-0.1451,0,0,0,0,0,0,0,0,-0.1343,-0.1346,-0.1378,-0.138,-0.1382,-0.1405,-0.1391,-0.1411,-0.1418,-0.1404,-0.142,-0.142,-0.1434,-0.1436,-0.1438,-0.1444,-0.1445,-0.1451,-0.1452,-0.1452,-0.1452,0,0,0,0,0,0,0,-0.1342,-0.1345,-0.1375,-0.1379,-0.1381,-0.1387,-0.139,-0.1395,-0.1414,-0.1405,-0.1407,-0.1413,-0.1435,-0.1438,-0.1439,-0.1446,-0.1451,-0.1452,-0.1452,-0.1452,-0.15,-0.15,0,0,0,0,0,0,-0.134,-0.1343,-0.1374,-0.1376,-0.1365,-0.1387,-0.1391,-0.1396,-0.1414,-0.1418,-0.1412,-0.1414,-0.1436,-0.1439,-0.144,-0.1481,-0.1452,-0.1452,-0.1453,-0.1499,-0.15,-0.1501,0,0,0,0,0,0,-0.1339,-0.1343,-0.1372,-0.1361,-0.1366,-0.1387,-0.1392,-0.1396,-0.1424,-0.142,-0.1424,-0.1439,-0.1437,-0.144,-0.1464,-0.1481,-0.1453,-0.1453,-0.1498,-0.1499,-0.15,-0.1533,0,0,0,0,0,0,-0.1338,-0.1342,-0.1356,-0.1361,-0.1366,-0.1392,-0.1392,-0.1396,-0.1425,-0.1428,-0.1444,-0.1446,-0.1438,-0.1463,-0.1465,-0.1481,-0.1454,-0.1497,-0.1498,-0.15,-0.1531,-0.1535,-0.1539,0,0,0,0,0,-0.1336,-0.1346,-0.1357,-0.1361,-0.1381,-0.1393,-0.1397,-0.1412,-0.1426,-0.144,-0.1453,-0.1446,-0.1475,-0.1465,-0.1466,-0.1483,-0.1496,-0.1498,-0.15,-0.1529,-0.1534,-0.1539,0,0,0,0,0,0,-0.1337,-0.1349,-0.1361,-0.1376,-0.1392,-0.1398,-0.1414,-0.1428,-0.1449,-0.1459,-0.1458,-0.146,-0.1487,-0.1483,-0.1472,-0.1502,-0.1484,-0.1486,-0.1506,-0.1511,-0.1515,-0.1499,-0.1454,0,0,0,0,0,-0.1343,-0.1354,-0.1369,-0.1383,-0.1394,-0.1411,-0.1424,-0.1436,-0.145,-0.1462,-0.1474,-0.1485,-0.1492,-0.1501,-0.1506,-0.1524,-0.1503,-0.1536,-0.1541,-0.1544,-0.1533,-0.1522,-0.1523,-0.1507,-0.1507,-0.1507,0,0,-0.1347,-0.1357,-0.1364,-0.1385,-0.1399,-0.1414,-0.142,-0.1445,-0.146,-0.146,-0.1493,-0.1502,-0.1501,-0.1519,-0.1531,-0.1521,-0.1539,-0.1546,-0.1549,-0.1536,-0.1524,-0.1525,-0.1526,-0.1508,-0.1508,-0.1508,0,0,-0.1347,-0.1371,-0.1378,-0.1395,-0.1422,-0.1432,-0.1446,-0.1469,-0.1487,-0.1516,-0.1518,-0.1536,-0.1558,-0.1552,-0.1552,-0.1582,-0.1562,-0.1595,-0.1602,-0.1593,-0.1593,-0.1594,-0.157,-0.1568,-0.1596,-0.1596,-0.1596,0,-0.1354,-0.1364,-0.1383,-0.1397,-0.1412,-0.1443,-0.1457,-0.1476,-0.1507,-0.1518,-0.1533,-0.1559,-0.1566,-0.157,-0.1583,-0.1589,-0.1578,-0.1584,-0.1596,-0.1596,-0.1596,-0.1572,-0.1569,-0.1598,-0.1598,-0.1598,-0.1598,0,-0.135,-0.1374,-0.1382,-0.1407,-0.1427,-0.1446,-0.1473,-0.1502,-0.1533,-0.1546,-0.1575,-0.1584,-0.1595,-0.1607,-0.1606,-0.1611,-0.1602,-0.1603,-0.1581,-0.1599,-0.1573,-0.157,-0.1601,-0.16,-0.1599,-0.1599,0,0,-0.132,-0.1369,-0.1375,-0.1395,-0.1436,-0.145,-0.1482,-0.1508,-0.153,-0.1565,-0.1584,-0.1602,-0.1614,-0.1613,-0.1619,-0.1614,-0.161,-0.1614,-0.1612,-0.1584,-0.1581,-0.1479,-0.1465,-0.1619,-0.1619,-0.1619,-0.1564,0,-0.1313,-0.134,-0.1366,-0.14,-0.1416,-0.1457,-0.1482,-0.1514,-0.1547,-0.1575,-0.1588,-0.1611,-0.1614,-0.163,-0.1625,-0.1619,-0.1603,-0.1624,-0.1572,-0.157,-0.1471,-0.1458,-0.1617,-0.1561,-0.156,-0.1559,-0.1559,0,-0.129,-0.1317,-0.1347,-0.14,-0.1412,-0.1439,-0.1486,-0.1513,-0.1553,-0.1579,-0.16,-0.1617,-0.1621,-0.1627,-0.1601,-0.1619,-0.1598,-0.1586,-0.1584,-0.1469,-0.146,-0.1538,-0.1552,-0.1553,-0.1553,-0.1554,-0.1554,0,-0.1246,-0.1299,-0.1326,-0.1345,-0.1407,-0.1433,-0.1469,-0.1515,-0.1538,-0.1585,-0.1604,-0.1614,-0.1624,-0.1605,-0.1585,-0.1599,-0.1547,-0.1561,-0.144,-0.1433,-0.1529,-0.1529,-0.1526,-0.1526,-0.1526,-0.1526,-0.1526,0,-0.1211,-0.1236,-0.1315,-0.1329,-0.1363,-0.1418,-0.1454,-0.1492,-0.1541,-0.1545,-0.1604,-0.1591,-0.1621,-0.1599,-0.1578,-0.1485,-0.1536,-0.1422,-0.1405,-0.1545,-0.1548,-0.1526,-0.1527,-0.1524,-0.1525,-0.1525,-0.1525,0,-0.1149,-0.1204,-0.1239,-0.1317,-0.1343,-0.1368,-0.1443,-0.1456,-0.1523,-0.153,-0.1545,-0.1577,-0.1534,-0.1541,-0.1504,-0.1457,-0.1396,-0.1351,-0.1487,-0.1483,-0.1292,-0.1295,-0.1203,-0.1199,-0.1196,-0.1193,-0.119,0,-0.1116,-0.113,-0.1218,-0.1236,-0.1274,-0.1326,-0.1348,-0.1431,-0.1437,-0.1486,-0.1463,-0.1466,-0.1464,-0.1321,-0.1351,-0.1291,-0.1278,-0.1251,-0.1276,-0.1262,-0.1256,-0.1265,-0.1273,-0.1184,-0.1183,-0.1182,-0.1182,0,-0.1046,-0.109,-0.1118,-0.1158,-0.1192,-0.1222,-0.1262,-0.126,-0.1324,-0.1404,-0.133,-0.1302,-0.125,-0.1218,-0.1186,-0.1147,-0.1275,-0.1213,-0.1221,-0.1244,-0.1238,-0.1238,-0.125,-0.1169,-0.1171,-0.1172,-0.1173,0,-0.0989,-0.0992,-0.1034,-0.1055,-0.1096,-0.1088,-0.1132,-0.1122,-0.1143,-0.1205,-0.1164,-0.1168,-0.1206,-0.1139,-0.1102,-0.1065,-0.1051,-0.1031,-0.1048,-0.1062,-0.1045,-0.1018,-0.0845,0,0,0,0,0,-0.0925,-0.0911,-0.0922,-0.0931,-0.0967,-0.0987,-0.105,-0.1093,-0.1161,-0.1066,-0.1115,-0.1053,-0.0998,-0.1008,-0.0937,-0.1049,-0.1067,-0.0965,-0.1056,-0.11,-0.1114,-0.111,0,0,0,0,0,0,-0.0877,-0.0885,-0.0883,-0.0822,-0.0801,-0.0819,-0.0856,-0.0906,-0.0867,-0.0942,-0.0909,-0.0977,-0.0935,-0.0997,-0.0902,-0.0909,-0.0943,-0.0984,-0.0981,-0.1092,-0.1105,-0.1117,-0.1117,0,0,0,0,0]},{"header":{"parameterUnit":"m.s-1","parameterCategory":2,"la1":30.2991,"la2":30.254,"lo1":-89.0895,"lo2":-89.0444,"dy":0.0017,"dx":0.0017,"nx":28,"ny":28,"refTime":"2025-01-01T09:00:00:Z","depth":"4","parameterNumber":3,"parameterNumberName":"V-component_of_CURRENTS"},"data":[0,0,0,0,0,0,0,0,0,0,0,0,0,0,0,0,0,0,0,0,0,0,0,0,0,0,0,0,0,0,0,0,0,0,0,0,0,0,0,0,0,0,0,0,0,0,0,0,0,0,0,0,0,0,0,0,0,0,-0.0145,-0.0145,0,-0.0099,-0.0098,-0.0098,-0.0072,-0.0072,-0.0072,-0.0072,-0.0013,-0.0012,-0.001,0,0,0,0,0,0,0,0,0,0,0,0,0,-0.0181,-0.018,-0.0145,-0.0145,-0.0144,-0.0099,-0.0098,-0.0097,-0.0072,-0.0072,-0.0072,-0.0072,-0.0014,-0.0012,-0.001,0,0,0,0,0,0,0,0,0,0,0,0,0,-0.0153,-0.018,-0.0146,-0.0126,-0.0124,-0.0099,-0.0098,-0.0097,-0.0072,-0.0072,-0.0072,-0.0072,-0.0014,-0.0012,-0.001,0.0002,0,0,-0.0003,-0.0002,0,0,0,0,0,0,0,0,-0.0154,-0.0152,-0.013,-0.0127,-0.0125,-0.0091,-0.0089,-0.0063,-0.0072,-0.0092,-0.0072,-0.0072,-0.0038,-0.0034,-0.0025,0.0005,0.0008,-0.0003,-0.0001,-0.0,0.0,0,0,0,0,0,0,0,-0.0156,-0.0153,-0.0127,-0.0129,-0.0126,-0.0109,-0.0105,-0.0084,-0.0066,-0.009,-0.0088,-0.0083,-0.0037,-0.0028,-0.0024,0.0009,-0.0003,-0.0001,0.0001,0.0002,0.0057,0.0058,0,0,0,0,0,0,-0.0164,-0.0155,-0.0128,-0.0125,-0.014,-0.0108,-0.0104,-0.0102,-0.0066,-0.0061,-0.0083,-0.0082,-0.0032,-0.0026,-0.0022,-0.0001,-0.0,0.0002,0.0003,0.0057,0.0057,0.0058,0,0,0,0,0,0,-0.0165,-0.0162,-0.013,-0.0139,-0.0134,-0.0108,-0.0106,-0.0101,-0.0093,-0.0061,-0.0055,-0.008,-0.0031,-0.0025,-0.0003,0.0001,0.0003,0.0005,0.0057,0.0057,0.0058,0.0037,0,0,0,0,0,0,-0.0166,-0.0163,-0.0167,-0.014,-0.0134,-0.0118,-0.0106,-0.01,-0.009,-0.0089,-0.0057,-0.0051,-0.0031,-0.0007,-0.0001,0.0004,0.0007,0.0057,0.0057,0.0057,0.0037,0.0036,0.0035,0,0,0,0,0,-0.0168,-0.0171,-0.0167,-0.0164,-0.0139,-0.0118,-0.0114,-0.0095,-0.0091,-0.0088,-0.0066,-0.0052,-0.0001,-0.0005,0.0002,0.0008,0.0057,0.0057,0.0057,0.0038,0.0037,0.0035,0,0,0,0,0,0,-0.0189,-0.0168,-0.0163,-0.0161,-0.0143,-0.0114,-0.0111,-0.0098,-0.0079,-0.0079,-0.005,-0.0042,-0.0024,-0.0005,-0.001,0.0024,0.003,0.0031,0.0013,0.0012,0.0011,0.0005,0.0008,0,0,0,0,0,-0.0196,-0.0194,-0.017,-0.0169,-0.0163,-0.0139,-0.013,-0.0117,-0.0095,-0.0087,-0.0063,-0.0039,-0.0017,-0.0001,0.0018,0.004,0.0059,0.0047,0.0046,0.0045,0.0045,0.0082,0.0085,0.0059,0.0059,0.0059,0,0,-0.0204,-0.0193,-0.0192,-0.0174,-0.016,-0.0151,-0.0133,-0.0122,-0.0111,-0.0083,-0.0065,-0.0044,-0.0013,0.0009,0.0019,0.0025,0.0062,0.0046,0.0045,0.0045,0.0083,0.0086,0.0088,0.0059,0.0059,0.0059,0,0,-0.0217,-0.0211,-0.0212,-0.0199,-0.0181,-0.0165,-0.0164,-0.0136,-0.0123,-0.0103,-0.008,-0.0055,-0.0024,0.0005,0.0023,0.0029,0.0052,0.0032,0.0029,0.0065,0.0067,0.007,0.0092,0.0096,0.0037,0.0036,0.0036,0,-0.0229,-0.0227,-0.0209,-0.0206,-0.0198,-0.0173,-0.0171,-0.0151,-0.012,-0.0106,-0.0102,-0.0047,-0.0023,0.0015,0.0016,0.0028,0.0045,0.003,0.0064,0.0066,0.0069,0.0092,0.0097,0.0036,0.0036,0.0036,0.0036,0,-0.0238,-0.0239,-0.0239,-0.0227,-0.0216,-0.0211,-0.0183,-0.0169,-0.0152,-0.0128,-0.0094,-0.0058,-0.0023,-0.0011,0.0005,0.0039,0.0042,0.0054,0.0065,0.0071,0.0094,0.01,0.0034,0.0034,0.0035,0.0035,0,0,-0.0259,-0.0249,-0.025,-0.0253,-0.0229,-0.0222,-0.0203,-0.0176,-0.0165,-0.0129,-0.0107,-0.0061,-0.004,-0.002,0.0008,0.0042,0.0075,0.0053,0.0055,0.0072,0.0144,0.0125,0.013,0.0091,0.0093,0.0093,0.015,0,-0.0274,-0.0282,-0.0266,-0.0271,-0.0274,-0.0245,-0.0231,-0.0202,-0.0174,-0.0146,-0.0095,-0.007,-0.0043,-0.0032,0.001,0.0057,0.0091,0.0058,0.0139,0.0141,0.0122,0.0136,0.0097,0.0154,0.0156,0.0157,0.0157,0,-0.0287,-0.0293,-0.0305,-0.03,-0.0298,-0.0296,-0.0274,-0.0256,-0.0205,-0.0182,-0.0136,-0.0099,-0.0041,-0.0027,0.007,0.0046,0.0091,0.0129,0.0133,0.0127,0.0133,0.015,0.0168,0.0168,0.0167,0.0166,0.0165,0,-0.0317,-0.0319,-0.0334,-0.0332,-0.032,-0.0321,-0.0312,-0.0272,-0.0258,-0.0207,-0.0194,-0.0115,-0.0083,-0.0007,0.0075,0.0072,0.0175,0.0183,0.0211,0.021,0.0219,0.0216,0.025,0.025,0.0249,0.0249,0.0249,0,-0.0336,-0.0349,-0.0356,-0.0365,-0.0385,-0.036,-0.0367,-0.0342,-0.0306,-0.0287,-0.0221,-0.0188,-0.0078,-0.0003,0.0072,0.016,0.0178,0.0212,0.0227,0.0208,0.0203,0.0223,0.0219,0.0251,0.0251,0.025,0.025,0,-0.0363,-0.0366,-0.0389,-0.0396,-0.0403,-0.0419,-0.0417,-0.0414,-0.0377,-0.0349,-0.0336,-0.0241,-0.0143,-0.0034,0.0092,0.0146,0.0235,0.026,0.0225,0.0236,0.0245,0.0239,0.0296,0.0296,0.0296,0.0296,0.0296,0,-0.0374,-0.0391,-0.0424,-0.0447,-0.0455,-0.0475,-0.0485,-0.0457,-0.0445,-0.0376,-0.036,-0.0267,-0.0193,-0.0027,0.0082,0.0223,0.024,0.0279,0.0269,0.0243,0.0252,0.0246,0.0241,0.0295,0.0295,0.0295,0.0295,0,-0.0397,-0.0415,-0.0437,-0.0487,-0.0515,-0.0537,-0.0545,-0.0539,-0.0489,-0.0463,-0.0371,-0.0274,-0.0164,-0.003,0.0077,0.0179,0.0251,0.0278,0.0279,0.027,0.0243,0.025,0.0245,0.0295,0.0295,0.0295,0.0295,0,-0.0416,-0.0443,-0.0477,-0.0517,-0.0558,-0.0577,-0.0578,-0.0548,-0.0527,-0.0438,-0.0409,-0.0278,-0.0195,-0.0052,0.005,0.0144,0.0164,0.0187,0.0193,0.0195,0.0147,0.0096,0.0118,0,0,0,0,0,-0.0427,-0.0457,-0.05,-0.0542,-0.0583,-0.0599,-0.0603,-0.059,-0.0543,-0.0484,-0.044,-0.0331,-0.0165,-0.009,0.0001,0.0034,0.0167,0.0141,0.0194,0.0293,0.0293,0.0252,0,0,0,0,0,0,-0.0436,-0.0479,-0.05,-0.0551,-0.058,-0.0616,-0.0616,-0.0585,-0.0541,-0.0482,-0.0392,-0.0326,-0.0167,-0.0218,-0.0003,0.0026,0.0068,0.0224,0.0225,0.0293,0.0293,0.0293,0.0251,0,0,0,0,0]}]]